カタログに戻る

DELTA 1 DEB

運用中PO
NORAD 8970·DEBRIS·🇺🇸 United States

打ち上げ Jan 22, 1975 から Vandenberg Space Force Base

Loading…

次のパス (今後24時間)

TLE

最新Source: Space-Track

元期: Sep 14, 2026, 13:52 UTC

1 08970U 75004BC  26257.57784410  .00001203  00000-0  31392-3 0  9995
2 08970  97.3202  11.9747 0099782 280.6403  78.3568 14.48062825632240

AllMySatでDELTA 1 DEBをリアルタイム追跡

Download on the App Store